Location: ???????
(55.4362°N, 38.1183°E)
Time: 03:35:05
(UTC+00:00)

USA 215 - Pass Details

Date: 17 June 2021
Orbit: 1100 x 1107 km, 123.0° (Epoch: 22 June)

Event Time Altitude Azimuth Distance (km) Brightness Sun altitude
Rises 19:03:46 0° 64° (ENE) 3,924 6.1 -5.3°
Reaches altitude 10° 19:06:58 10° 79° (E) 2,963 5.3 -5.6°
Maximum altitude 19:11:48 22° 127° (SE) 2,223 4.4 -5.9°
Drops below altitude 10° 19:16:36 10° 175° (S) 2,953 5.0 -6.3°
Sets 19:19:46 0° 191° (S) 3,907 5.7 -6.5°
